When you browse on this site, cookies collect data to enhance your experience and personalize the content and advertising you see.
Visit our Privacy Policy to learn more. By continuing to use the site, you agree to this use of cookies and data.
  • Em Portugal
  • Lista de países
  • Para 7 dias
  • Temperatura da água
  • Mapa do tempo
  • Widgets de tempo
  • user-avatar
    Iniciar Sessão

    Previsão horária em Debreczyn

    Hoje, 23 Setembro, Segunda-feira

    Tempo Temperatura Precipitação Vento Pressão Humidade
    00:00 +14°C° 0 mm 2 m/s 751 mmHg 43%
    01:00 +13°C° 0 mm 2 m/s 751 mmHg 45%
    02:00 +13°C° 0 mm 2 m/s 751 mmHg 47%
    03:00 +13°C° 0 mm 1 m/s 751 mmHg 49%
    04:00 +13°C° 0 mm 1 m/s 751 mmHg 50%
    05:00 +13°C° 0 mm 1 m/s 750 mmHg 48%
    06:00 +14°C° 0 mm 1 m/s 750 mmHg 46%
    07:00 +15°C° 0 mm 1 m/s 750 mmHg 44%
    08:00 +18°C° 0 mm 1 m/s 750 mmHg 41%
    09:00 +19°C° 0 mm 1 m/s 750 mmHg 37%
    10:00 +21°C° 0 mm 1 m/s 750 mmHg 33%
    11:00 +21°C° 0 mm 1 m/s 750 mmHg 33%
    12:00 +22°C° 0 mm 1 m/s 750 mmHg 33%
    13:00 +22°C° 0 mm 1 m/s 750 mmHg 33%
    14:00 +20°C° 0 mm 2 m/s 750 mmHg 37%
    15:00 +19°C° 0 mm 2 m/s 749 mmHg 41%
    16:00 +18°C° 0 mm 2 m/s 749 mmHg 46%
    17:00 +17°C° 0.1 mm 2 m/s 749 mmHg 52%
    18:00 +16°C° 0.1 mm 2 m/s 749 mmHg 58%
    19:00 +14°C° 0.1 mm 3 m/s 750 mmHg 64%
    20:00 +16°C° 0 mm 2 m/s 749 mmHg 63%
    21:00 +16°C° 0 mm 2 m/s 749 mmHg 63%
    22:00 +16°C° 0 mm 2 m/s 749 mmHg 62%
    23:00 +15°C° 0 mm 2 m/s 749 mmHg 61%

    Amanhã, 24 Setembro, Terça-feira

    Tempo Temperatura Precipitação Vento Pressão Humidade
    00:00 +15°C° 0 mm 2 m/s 749 mmHg 60%
    01:00 +15°C° 0 mm 2 m/s 749 mmHg 58%
    02:00 +15°C° 0 mm 2 m/s 749 mmHg 62%
    03:00 +14°C° 0 mm 2 m/s 749 mmHg 65%
    04:00 +13°C° 0 mm 3 m/s 748 mmHg 69%
    05:00 +13°C° 0 mm 3 m/s 748 mmHg 69%
    06:00 +13°C° 0 mm 3 m/s 748 mmHg 69%
    07:00 +13°C° 0 mm 3 m/s 749 mmHg 69%
    08:00 +16°C° 0 mm 3 m/s 749 mmHg 63%
    09:00 +17°C° 0 mm 3 m/s 749 mmHg 57%
    10:00 +19°C° 0 mm 3 m/s 749 mmHg 51%
    11:00 +20°C° 0 mm 3 m/s 748 mmHg 47%
    12:00 +22°C° 0 mm 3 m/s 748 mmHg 43%
    13:00 +24°C° 0 mm 2 m/s 748 mmHg 39%
    14:00 +24°C° 0 mm 2 m/s 748 mmHg 40%
    15:00 +24°C° 0 mm 2 m/s 748 mmHg 41%
    16:00 +23°C° 0 mm 2 m/s 748 mmHg 43%
    17:00 +21°C° 0 mm 2 m/s 748 mmHg 49%
    18:00 +19°C° 0 mm 2 m/s 748 mmHg 55%
    19:00 +18°C° 0 mm 2 m/s 748 mmHg 61%
    20:00 +17°C° 0 mm 2 m/s 748 mmHg 62%
    21:00 +17°C° 0 mm 3 m/s 749 mmHg 64%
    22:00 +17°C° 0 mm 3 m/s 749 mmHg 65%
    23:00 +16°C° 0 mm 3 m/s 749 mmHg 66%

    Depois de amanhã, 25 Setembro, Quarta-feira

    Tempo Temperatura Precipitação Vento Pressão Humidade
    00:00 +16°C° 0 mm 3 m/s 749 mmHg 67%
    01:00 +16°C° 0 mm 3 m/s 749 mmHg 68%
    02:00 +16°C° 0.2 mm 3 m/s 749 mmHg 73%
    03:00 +14°C° 0.2 mm 3 m/s 749 mmHg 78%
    04:00 +14°C° 0.2 mm 3 m/s 749 mmHg 83%
    05:00 +15°C° 0.2 mm 2 m/s 749 mmHg 84%
    06:00 +15°C° 0.2 mm 2 m/s 748 mmHg 85%
    07:00 +15°C° 0.2 mm 2 m/s 748 mmHg 87%
    08:00 +15°C° 0.5 mm 2 m/s 749 mmHg 88%
    09:00 +15°C° 0.5 mm 2 m/s 749 mmHg 90%
    10:00 +15°C° 0.5 mm 2 m/s 749 mmHg 91%
    11:00 +15°C° 0.4 mm 2 m/s 749 mmHg 91%
    12:00 +15°C° 0.4 mm 2 m/s 749 mmHg 91%
    13:00 +15°C° 0.4 mm 2 m/s 749 mmHg 90%
    14:00 +15°C° 0 mm 2 m/s 748 mmHg 89%
    15:00 +16°C° 0 mm 2 m/s 748 mmHg 87%
    16:00 +16°C° 0 mm 2 m/s 748 mmHg 86%
    17:00 +16°C° 0 mm 2 m/s 748 mmHg 88%
    18:00 +15°C° 0 mm 2 m/s 748 mmHg 91%
    19:00 +14°C° 0 mm 2 m/s 748 mmHg 94%
    20:00 +14°C° 0 mm 2 m/s 748 mmHg 93%
    21:00 +14°C° 0 mm 2 m/s 748 mmHg 93%
    22:00 +14°C° 0 mm 2 m/s 749 mmHg 93%
    23:00 +13°C° 0 mm 1 m/s 748 mmHg 92%

    26 Setembro, Quinta-feira

    Tempo Temperatura Precipitação Vento Pressão Humidade
    00:00 +13°C° 0 mm 1 m/s 748 mmHg 92%
    01:00 +13°C° 0 mm 1 m/s 748 mmHg 91%
    02:00 +13°C° 0 mm 1 m/s 748 mmHg 91%
    03:00 +13°C° 0 mm 1 m/s 748 mmHg 91%
    04:00 +13°C° 0 mm 1 m/s 749 mmHg 90%
    05:00 +14°C° 0 mm 1 m/s 749 mmHg 88%
    06:00 +14°C° 0 mm 1 m/s 749 mmHg 86%
    07:00 +15°C° 0 mm 1 m/s 749 mmHg 84%
    08:00 +15°C° 0.3 mm 1 m/s 749 mmHg 85%
    09:00 +15°C° 0.3 mm 1 m/s 749 mmHg 87%
    10:00 +15°C° 0.3 mm 1 m/s 750 mmHg 88%
    11:00 +15°C° 0.6 mm 1 m/s 750 mmHg 89%
    12:00 +15°C° 0.6 mm 1 m/s 750 mmHg 91%
    13:00 +15°C° 0.6 mm 1 m/s 750 mmHg 92%
    14:00 +15°C° 0.1 mm 1 m/s 750 mmHg 91%
    15:00 +15°C° 0.1 mm 1 m/s 750 mmHg 89%
    16:00 +16°C° 0.1 mm 1 m/s 750 mmHg 88%
    17:00 +15°C° 0 mm 1 m/s 750 mmHg 90%
    18:00 +14°C° 0 mm 1 m/s 750 mmHg 92%
    19:00 +13°C° 0 mm 1 m/s 751 mmHg 95%
    20:00 +13°C° 0 mm 1 m/s 751 mmHg 95%
    21:00 +13°C° 0 mm 1 m/s 751 mmHg 95%
    22:00 +12°C° 0 mm 2 m/s 752 mmHg 95%
    23:00 +12°C° 0 mm 2 m/s 752 mmHg 95%

    27 Setembro, Sexta-feira

    Tempo Temperatura Precipitação Vento Pressão Humidade
    00:00 +12°C° 0 mm 2 m/s 752 mmHg 95%
    01:00 +12°C° 0 mm 2 m/s 752 mmHg 95%
    02:00 +10°C° 0 mm 2 m/s 752 mmHg 95%
    03:00 +11°C° 0 mm 1 m/s 752 mmHg 95%
    04:00 +11°C° 0 mm 1 m/s 753 mmHg 95%
    05:00 +10°C° 0 mm 2 m/s 753 mmHg 93%
    06:00 +12°C° 0 mm 2 m/s 753 mmHg 92%
    07:00 +13°C° 0 mm 2 m/s 753 mmHg 91%
    08:00 +14°C° 0 mm 2 m/s 753 mmHg 82%
    09:00 +16°C° 0 mm 2 m/s 753 mmHg 74%
    10:00 +18°C° 0 mm 2 m/s 754 mmHg 66%
    11:00 +20°C° 0 mm 2 m/s 754 mmHg 61%
    12:00 +21°C° 0 mm 2 m/s 753 mmHg 55%
    13:00 +23°C° 0 mm 2 m/s 753 mmHg 49%
    14:00 +23°C° 0 mm 2 m/s 753 mmHg 49%
    15:00 +23°C° 0 mm 2 m/s 753 mmHg 50%
    16:00 +23°C° 0 mm 2 m/s 753 mmHg 50%
    17:00 +21°C° 0 mm 1 m/s 753 mmHg 56%
    18:00 +20°C° 0 mm 1 m/s 753 mmHg 61%
    19:00 +16°C° 0 mm 0 m/s 753 mmHg 67%
    20:00 +18°C° 0 mm 1 m/s 753 mmHg 69%
    21:00 +16°C° 0 mm 1 m/s 753 mmHg 70%
    22:00 +16°C° 0 mm 2 m/s 754 mmHg 72%
    23:00 +16°C° 0 mm 2 m/s 753 mmHg 74%

    28 Setembro, Sábado

    Tempo Temperatura Precipitação Vento Pressão Humidade
    00:00 +16°C° 0 mm 2 m/s 753 mmHg 75%
    01:00 +15°C° 0 mm 2 m/s 753 mmHg 76%
    02:00 +15°C° 0 mm 2 m/s 753 mmHg 77%
    03:00 +15°C° 0 mm 2 m/s 753 mmHg 78%
    04:00 +15°C° 0 mm 2 m/s 753 mmHg 79%
    05:00 +15°C° 0 mm 1 m/s 753 mmHg 76%
    06:00 +16°C° 0 mm 1 m/s 753 mmHg 74%
    07:00 +16°C° 0 mm 1 m/s 753 mmHg 71%
    08:00 +19°C° 0 mm 1 m/s 752 mmHg 65%
    09:00 +20°C° 0 mm 2 m/s 752 mmHg 58%
    10:00 +23°C° 0 mm 2 m/s 752 mmHg 51%
    11:00 +24°C° 0 mm 2 m/s 752 mmHg 48%
    12:00 +25°C° 0 mm 2 m/s 751 mmHg 45%
    13:00 +25°C° 0 mm 2 m/s 751 mmHg 42%
    14:00 +25°C° 0 mm 2 m/s 751 mmHg 42%
    15:00 +25°C° 0 mm 2 m/s 750 mmHg 43%
    16:00 +25°C° 0 mm 1 m/s 750 mmHg 44%
    17:00 +23°C° 0 mm 1 m/s 750 mmHg 46%
    18:00 +22°C° 0 mm 1 m/s 750 mmHg 49%
    19:00 +21°C° 0 mm 1 m/s 750 mmHg 51%
    20:00 +21°C° 0 mm 1 m/s 750 mmHg 53%
    21:00 +20°C° 0 mm 1 m/s 750 mmHg 54%
    22:00 +20°C° 0 mm 1 m/s 750 mmHg 56%
    23:00 +20°C° 0 mm 1 m/s 750 mmHg 59%
    Mostrar mais